Location: Powder Track
(41.8531°N, 72.3584°W)
Time: 16:34:29
(UTC+00:00)

Vanguard 1 Rocket - Pass Details

Date: 15 August 2021
Orbit: 650 x 4226 km, 34.3° (Epoch: 20 September)

Event Time Altitude Azimuth Distance (km) Brightness Sun altitude
Rises 19:01:42 0° 280° (W) 7,008 12.3 50.6°
Reaches altitude 10° 19:11:22 10° 255° (WSW) 4,939 12.0 49.1°
Maximum altitude 19:15:05 12° 238° (WSW) 4,350 11.9 48.5°
Drops below altitude 10° 19:18:17 10° 221° (SW) 4,069 11.6 48.0°
Sets 19:23:58 0° 190° (S) 4,304 11.2 47.1°
